BGUSAT (41999 NORAD) Tracking and Keplerian Element Data

This shows tracking and keplerian element data for the satellite.

Feedback or suggestion? Click here.




ElementValue
Catalog41999
NameBGUSAT
Epoch Orbit9700
Epoch Day322.89449642
Epoch Year2018
RAAN26.9982
Inclination97.4344
Eccentricity0.0008485
Argument of Perigee175.6373
Mean Anonmoly184.4941
Mean Motion15.25236457
Decay Rate2.222E-05
L11 41999U 17008BD 18322.89449642 .00002222 00000-0 91278-4 0 9999
L22 41999 97.4344 26.9982 0008485 175.6373 184.4941 15.25236457 97005

Live tracking and technical data element details for BGUSAT (NORAD 41999). BGUSAT can be tracked NOW for your location showing map with azimuth and elevation plus other details from your city location.

Track the satellite on the map from your city or location and see movement details for azimuth, elevation, latitude, longitude, range, height, and movement on the map or in text.







IsCatalogInMostPopularTable: catalog: 41999, numindb: 107
Update: records affected: 1



GetName: 41999 BGUSAT

Hit Count: updated at: Mon, 19 Nov 2018 14:15:12 GMT